Simultaneous Nadir Overpasses (SNOs) Predictions

Prediction of SNOs between NOAA-15 and METOP-C Satellite Orbit:

Table of predicted SNOs for the next 14.0 days since TLE Epoch: 3/25/2023
Index Date (NOAA-15) Time (NOAA-15) Lat,Lon (NOAA-15) SZA (NOAA-15 ) Date (METOP-C) Time (METOP-C) Lat,Lon (METOP-C) SZA (METOP-C ) Distance(km) Time Diff (sec)
1 04/04/2023 16:34:47 -81.07, 149.86 102.83 04/04/2023 16:33:36 -81.08, 149.90 102.85 0.76 71
2 04/04/2023 17:25:22 81.08, -42.95 77.15 04/04/2023 17:24:17 81.07, -43.00 77.11 1.58 65
3 04/04/2023 18:15:49 -81.09, 124.30 102.88 04/04/2023 18:14:58 -81.07, 124.41 102.90 2.55 51
4 04/04/2023 19:06:23 81.08, -68.14 77.13 04/04/2023 19:05:38 81.08, -68.11 77.11 0.57 45
5 04/04/2023 19:56:50 -81.09, 99.11 102.90 04/04/2023 19:56:19 -81.08, 99.30 102.90 3.33 31
6 04/04/2023 20:47:23 81.08, -93.33 77.10 04/04/2023 20:46:58 81.09, -93.22 77.11 2.36 25
7 04/04/2023 21:37:50 -81.08, 73.92 102.92 04/04/2023 21:37:40 -81.08, 73.82 102.94 1.83 10
8 04/04/2023 22:28:24 81.07,-118.52 77.08 04/04/2023 22:28:20 81.08,-118.70 77.07 3.18 4
9 04/04/2023 23:18:51 -81.08, 48.73 102.94 04/04/2023 23:19:01 -81.09, 48.71 102.94 0.74 10
10 04/05/2023 00:09:26 81.09,-144.09 77.04 04/05/2023 00:09:42 81.08,-144.18 77.03 1.98 16
11 04/05/2023 00:59:53 -81.09, 23.17 102.99 04/05/2023 01:00:23 -81.08, 23.23 102.98 1.75 30
12 04/05/2023 01:50:27 81.08,-169.28 77.01 04/05/2023 01:51:03 81.09,-169.29 77.03 0.26 36
13 04/05/2023 02:40:54 -81.09, -2.02 103.01 04/05/2023 02:41:44 -81.09, -1.89 102.98 2.38 50
14 04/05/2023 03:31:28 81.08, 165.53 76.99 04/05/2023 03:32:24 81.09, 165.60 77.03 1.89 56
15 04/05/2023 04:21:55 -81.09, -27.21 103.03 04/05/2023 04:23:06 -81.08, -27.37 103.02 2.70 71



Historial Predications of SNOs between NOAA-15 and METOP-C
